Home   Weather   51°31'N, 2°34'W   Past weeks
Flag for United Kingdom

Past Weather in 51°31'N, 2°34'W, United Kingdom — Yesterday and Last 2 Weeks

Now
46 °F

Light rain. Mostly cloudy.


Feels Like: 41 °F
Forecast: N/A
Wind: 13 mph from Northwest

Location: Bristol / Lulsgate

Current Time: Mar 19, 2019 at 7:34:15 pm

Latest Report: Mar 19, 2019 at 6:50 pm


Visibility: 4 mi

Pressure: 30.39 "Hg

Humidity: 87%

Dew Point: 43 °F

Location of 51°31'N, 2°34'WLocation

Past Weather in 51°31'N, 2°34'W — Graph

°F

51°31'N, 2°34'W Temperature Yesterday

Maximum temperature yesterday: 45 °F (at 8:50 am)
Minimum temperature yesterday: 39 °F (at 12:20 am)
Average temperature yesterday: 43 °F

High & Low Weather Summary for the Past Weeks

 TemperatureHumidityPressure
High54 °F (Mar 19, 3:20 pm)100% (Mar 6, 5:50 am)30.36 "Hg (Mar 6, 5:50 am)
Low36 °F (Mar 10, 9:50 pm)54% (Mar 13, 3:20 pm)29.00 "Hg (Mar 6, 3:50 pm)
Average45 °F85%29.76 "Hg
* Reported Mar 4 5:20 pm — Mar 19 5:50 pm, 51°31'N, 2°34'W. Weather by CustomWeather, © 2019

Note: Actual official high and low records may vary slightly from our data, if they occured in-between our weather recording intervals... More about our weather records

Advertising

51°31'N, 2°34'W Weather History for the Previous 24 Hours

Scroll right to see more
 ConditionsComfort  
Time TempWeatherWind HumidityBarometerVisibility
5:50 pm
Tue, Mar 19
48 °FPartly sunny.9 mph82%30.36 "HgN/A
5:20 pm48 °FScattered clouds.13 mph82%30.36 "HgN/A
4:50 pm50 °FPartly sunny.13 mph71%30.33 "HgN/A
4:20 pm50 °FCool.15 mph76%30.33 "HgN/A
3:50 pm52 °FPassing clouds.13 mph72%30.33 "HgN/A
3:20 pm54 °FPassing clouds.14 mph67%30.33 "HgN/A
2:50 pm52 °FPassing clouds.17 mph72%30.33 "HgN/A
2:20 pm52 °FCool.15 mph72%30.33 "HgN/A
1:50 pm52 °FScattered clouds.18 mph72%30.36 "HgN/A
1:20 pm52 °FBroken clouds.16 mph72%30.36 "HgN/A
12:50 pm50 °FBroken clouds.14 mph76%30.36 "HgN/A
12:20 pm50 °FBroken clouds.10 mph88%30.36 "HgN/A
11:50 am48 °FBroken clouds.10 mph94%30.33 "HgN/A
11:20 am48 °FBroken clouds.8 mph94%30.33 "HgN/A
10:50 am46 °FBroken clouds.10 mph100%30.33 "Hg5 mi
10:20 am46 °FFog.9 mph100%30.33 "Hg3 mi
9:50 am46 °FFog.10 mph100%30.33 "Hg3 mi
9:20 am46 °FFog.9 mph100%30.33 "Hg2 mi
8:50 am46 °FCool.8 mph93%30.33 "Hg1 mi
8:20 am46 °FFog.8 mph93%30.30 "Hg1 mi
7:50 am45 °FFog.7 mph100%30.30 "Hg0 mi
7:20 am46 °FFog.8 mph93%30.30 "Hg0 mi
6:50 am45 °FFog.7 mph100%30.30 "Hg0 mi
6:20 am45 °FFog.7 mph100%30.27 "Hg0 mi
5:50 am45 °FFog.6 mph100%30.27 "Hg0 mi
5:20 am45 °FFog.7 mph100%30.27 "Hg0 mi
4:50 am45 °FFog.8 mph100%30.27 "Hg1 mi
4:20 am45 °FMostly cloudy.8 mph93%30.27 "HgN/A
3:50 am45 °FFog.8 mph93%30.27 "Hg2 mi
3:20 am45 °FFog.7 mph93%30.27 "Hg3 mi
2:50 am45 °FFog.8 mph100%30.27 "Hg0 mi
2:20 am45 °FFog.8 mph93%30.27 "Hg1 mi
1:50 am45 °FFog.9 mph93%30.27 "Hg0 mi
1:20 am45 °FFog.7 mph93%30.27 "Hg0 mi
12:50 am45 °FFog.6 mph93%30.27 "Hg0 mi
12:20 am45 °FFog.7 mph93%30.27 "Hg0 mi
11:50 pm
Mon, Mar 18
45 °FFog.7 mph93%30.27 "Hg0 mi
11:20 pm43 °FFog.6 mph100%30.24 "Hg0 mi
10:50 pm43 °FFog.5 mph100%30.24 "Hg1 mi
10:20 pm43 °FFog.6 mph100%30.24 "Hg0 mi
9:50 pm45 °FFog.6 mph93%30.24 "Hg1 mi
9:20 pm43 °FSnow. Fog.6 mph100%30.24 "Hg4 mi
8:50 pm45 °FPassing clouds.6 mph93%30.24 "Hg4 mi
8:20 pm43 °FFog.5 mph100%30.21 "HgN/A
7:50 pm45 °FMostly cloudy.6 mph93%30.21 "HgN/A
7:20 pm43 °FMostly cloudy.8 mph100%30.21 "Hg6 mi
Weather by CustomWeather, © 2019

See weather overview